Date_and_time,latitude,longitude,wind_speed,RelWindDirFrom,WindDirFrom,air_pressure,air_temperature,relative_humidity,Temp,platform_speed_wrt_ground,air_pressure_at_mean_sea_level,platform_orientation
2019-04-26 23:50,50.6304516666667,-96.98077,3.7,4.6,45,990.83,2.4,99,4.44,0.0,1018.55,360.0
2019-04-27 00:00,50.6304483333333,-96.9807666666667,4.7,5.6,56,990.80,2.2,100,4.44,0.0,1018.52,360.0
2019-04-27 00:10,50.63045,-96.9807683333333,4.4,5.3,64,990.77,2.5,99,4.43,0.0,1018.45,360.0
2019-04-27 00:20,50.6304533333333,-96.9807566666667,3.2,4.5,54,990.76,2.8,99,4.40,0.0,1018.39,360.0
2019-04-27 00:30,50.6304483333333,-96.9807666666667,3.1,3.9,40,990.67,2.6,99,4.43,0.0,1018.32,360.0
2019-04-27 00:40,50.6304516666667,-96.98077,3.1,3.7,41,990.64,2.2,100,4.48,0.0,1018.33,360.0
2019-04-27 00:50,50.630455,-96.9807683333333,3.1,3.9,26,990.69,2.0,100,4.50,0.0,1018.40,360.0
2019-04-27 01:00,50.6304566666667,-96.9807683333333,3.4,4.1,38,990.64,1.9,100,4.47,0.0,1018.33,38.0
2019-04-27 01:10,50.6304566666667,-96.98077,2.9,4.0,44,990.63,1.9,100,4.52,0.0,1018.28,38.0
2019-04-27 01:20,50.6304366666667,-96.98078,2.3,3.1,39,990.62,1.9,100,4.56,0.0,1018.25,38.0
2019-04-27 01:30,50.63045,-96.9807783333333,2.6,4.0,39,990.57,2.1,99,4.53,0.0,1018.24,38.0
2019-04-27 01:40,50.6304516666667,-96.9807716666667,1.3,2.3,72,990.49,2.3,99,4.44,0.0,1018.19,38.0
2019-04-27 01:50,50.630455,-96.9807766666667,2.2,3.1,52,990.40,2.1,99,4.42,0.0,1018.11,38.0
2019-04-27 02:00,50.6304433333333,-96.9807616666667,1.0,2.3,46,990.39,1.8,99,4.42,0.0,1018.10,360.0
2019-04-27 02:10,50.6304466666667,-96.9807883333333,0.6,1.6,243,990.40,1.4,99,4.44,0.0,1018.12,360.0
2019-04-27 02:20,50.630455,-96.9807816666667,0.6,1.4,185,990.36,1.3,99,4.48,0.0,1018.10,360.0
2019-04-27 02:30,50.6304566666667,-96.98078,0.0,0.2,0,990.42,1.7,99,4.50,0.0,1018.15,360.0
2019-04-27 02:40,50.6304583333333,-96.98078,1.2,1.7,202,990.48,1.4,99,4.49,0.0,1018.24,360.0
2019-04-27 02:50,50.6304583333333,-96.98078,0.3,1.1,267,990.57,1.7,96,4.50,0.0,1018.33,360.0
2019-04-27 03:00,50.6304583333333,-96.9807816666667,0.3,1.1,279,990.64,1.8,92,4.52,0.0,1018.40,310.6
2019-04-27 03:10,50.6304533333333,-96.9807666666667,0.7,1.6,277,990.71,1.8,87,4.52,0.0,1018.46,310.6
2019-04-27 03:20,50.6304516666667,-96.980765,0.9,1.4,268,990.73,1.6,91,4.50,0.0,1018.48,310.6
2019-04-27 03:30,50.6304516666667,-96.9807583333333,1.7,2.7,236,990.87,1.0,96,4.53,0.0,1018.64,310.6
2019-04-27 03:40,50.630445,-96.9807466666667,1.1,2.1,245,991.00,1.1,93,4.56,0.0,1018.79,310.6
2019-04-27 03:50,50.630455,-96.98076,1.1,1.9,283,991.13,1.3,91,4.58,0.0,1018.92,310.6
2019-04-27 04:00,50.63046,-96.9807666666667,2.3,3.2,282,991.28,0.9,95,4.60,0.0,1019.12,360.0
2019-04-27 04:10,50.6304666666667,-96.98076,2.3,3.1,298,991.32,0.6,98,4.61,0.0,1019.18,360.0
2019-04-27 04:20,50.6304483333333,-96.980775,3.3,4.3,323,991.38,0.9,87,4.62,0.0,1019.21,360.0
2019-04-27 04:30,50.6304666666667,-96.9807783333333,3.5,4.1,334,991.55,1.7,75,4.62,0.0,1019.36,360.0
2019-04-27 04:40,50.6304466666667,-96.9807733333333,2.5,3.7,334,991.63,1.6,76,4.62,0.0,1019.44,360.0
2019-04-27 04:50,50.6304716666667,-96.9807516666667,2.0,2.8,315,991.71,1.1,81,4.63,0.0,1019.53,360.0
2019-04-27 05:00,50.6304683333333,-96.9807683333333,2.6,3.7,307,991.69,0.5,90,4.63,0.0,1019.54,360.0
2019-04-27 05:10,50.6304433333333,-96.98078,3.6,4.2,334,991.51,0.6,82,4.64,0.0,1019.36,360.0
2019-04-27 05:20,50.6304533333333,-96.9807783333333,4.3,5.4,345,991.43,0.7,79,4.65,0.0,1019.31,360.0
2019-04-27 05:30,50.6304533333333,-96.980775,5.0,6.9,344,991.33,0.3,81,4.65,0.0,1019.22,360.0
2019-04-27 05:40,50.630455,-96.98078,7.7,10.2,351,991.16,0.4,79,4.64,0.0,1019.03,360.0
2019-04-27 05:50,50.630455,-96.9807783333333,8.8,11.4,351,991.12,0.7,77,4.61,0.0,1018.99,360.0
2019-04-27 06:00,50.630455,-96.98078,8.8,11.8,353,991.08,0.6,77,4.55,0.0,1018.97,360.0
2019-04-27 06:10,50.6304616666667,-96.9807533333333,8.6,10.3,353,991.04,0.5,78,4.54,0.0,1018.92,360.0
2019-04-27 06:20,50.630465,-96.9807566666667,8.7,10.0,355,991.03,0.4,78,4.54,0.0,1018.88,360.0
2019-04-27 06:30,50.6304516666667,-96.9807666666667,8.0,9.2,352,991.10,0.3,78,4.54,0.0,1018.96,360.0
2019-04-27 06:40,50.6304583333333,-96.9807683333333,8.1,9.7,344,991.21,0.4,77,4.56,0.0,1019.09,360.0
2019-04-27 06:50,50.6304566666667,-96.980765,8.1,11.0,345,991.30,0.5,75,4.58,0.0,1019.21,360.0
2019-04-27 07:00,50.6304566666667,-96.9807666666667,9.3,12.1,349,991.34,0.8,72,4.61,0.0,1019.23,360.0
2019-04-27 07:10,50.6304566666667,-96.9807683333333,10.2,13.4,350,991.42,0.7,72,4.62,0.0,1019.31,360.0
2019-04-27 07:20,50.6304566666667,-96.9807666666667,9.0,11.8,347,991.60,0.6,71,4.64,0.0,1019.52,360.0
2019-04-27 07:30,50.6304566666667,-96.9807666666667,8.4,10.8,344,991.72,0.5,70,4.65,0.0,1019.65,360.0
2019-04-27 07:40,50.6304566666667,-96.9807666666667,6.6,8.9,338,991.82,0.4,70,4.66,0.0,1019.74,360.0
2019-04-27 07:50,50.6304366666667,-96.980775,6.3,7.9,337,991.85,0.1,71,4.66,0.0,1019.79,360.0
2019-04-27 08:00,50.6304483333333,-96.9807783333333,6.5,8.6,340,991.84,-0.1,72,4.68,0.0,1019.79,207.4
2019-04-27 08:10,50.6304483333333,-96.9807716666667,6.7,8.2,340,991.87,-0.2,73,4.69,0.0,1019.83,207.4
2019-04-27 08:20,50.6304466666667,-96.9807716666667,5.6,7.9,333,991.92,-0.3,73,4.70,0.0,1019.89,207.4
2019-04-27 08:30,50.630445,-96.9807716666667,4.4,6.4,320,991.98,-0.5,73,4.71,0.0,1019.96,207.4
2019-04-27 08:40,50.630445,-96.98077,4.4,6.2,320,991.99,-0.7,73,4.71,0.0,1019.98,207.4
2019-04-27 08:50,50.630445,-96.98077,4.5,7.1,317,992.04,-0.9,74,4.70,0.0,1020.03,207.4
2019-04-27 09:00,50.630445,-96.9807683333333,4.6,6.5,316,992.11,-1.0,75,4.69,0.0,1020.10,130.6
2019-04-27 09:10,50.6304783333333,-96.9808016666667,5.3,7.7,318,992.20,-1.1,75,4.69,0.0,1020.21,130.6
2019-04-27 09:20,50.6304483333333,-96.98077,4.0,5.5,314,992.00,-1.1,75,4.69,0.0,1020.01,130.6
2019-04-27 09:30,50.63045,-96.980765,4.3,6.1,321,991.98,-1.2,76,4.69,0.0,1020.01,130.6
2019-04-27 09:40,50.63045,-96.980765,4.3,6.0,321,991.95,-1.3,77,4.68,0.0,1019.99,130.6
2019-04-27 09:50,50.6304533333333,-96.98076,4.0,5.3,321,991.89,-1.3,76,4.63,0.0,1019.93,130.6
2019-04-27 10:00,50.6304216666667,-96.9807766666667,4.3,5.8,325,991.87,-1.3,76,4.58,0.0,1019.92,200.2
2019-04-27 10:10,50.6304716666667,-96.9807666666667,3.8,5.5,315,991.80,-1.2,75,4.56,0.0,1019.86,200.2
2019-04-27 10:20,50.6304616666667,-96.9807566666667,4.5,6.2,321,991.88,-1.2,75,4.55,0.0,1019.94,200.2
2019-04-27 10:30,50.63042,-96.98074,5.0,6.6,319,991.96,-1.2,75,4.53,0.0,1020.04,200.2
2019-04-27 10:40,50.630445,-96.9807516666667,4.4,6.4,315,992.07,-1.2,75,4.51,0.0,1020.16,200.2
2019-04-27 10:50,50.6304516666667,-96.980755,4.7,6.4,320,992.21,-1.2,75,4.50,0.0,1020.31,200.2
2019-04-27 11:00,50.6304566666667,-96.9807616666667,5.0,7.0,322,992.29,-1.2,75,4.49,0.0,1020.39,73.2
2019-04-27 11:10,50.630455,-96.9807616666667,5.3,7.0,328,992.32,-1.3,76,4.50,0.0,1020.44,73.2
2019-04-27 11:20,50.630455,-96.9807633333333,5.7,6.8,336,992.33,-1.1,76,4.52,0.0,1020.44,73.2
2019-04-27 11:30,50.6304583333333,-96.9807666666667,5.9,7.3,340,992.49,-0.7,76,4.53,0.0,1020.59,73.2
2019-04-27 11:40,50.630455,-96.980765,5.4,6.8,345,992.53,-0.3,74,4.53,0.0,1020.61,73.2
2019-04-27 11:50,50.630455,-96.9807666666667,6.4,8.8,354,992.59,-0.1,75,4.53,0.0,1020.66,73.2
2019-04-27 12:00,50.6304533333333,-96.9807666666667,6.6,8.5,345,992.68,-0.0,74,4.53,0.0,1020.74,360.0
2019-04-27 12:10,50.6304666666667,-96.9807666666667,7.7,10.2,346,992.82,0.1,75,4.52,0.0,1020.88,360.0
2019-04-27 12:20,50.6304616666667,-96.980765,8.8,11.0,350,992.95,0.1,75,4.54,0.0,1021.01,360.0
2019-04-27 12:30,50.6304566666667,-96.9807616666667,8.5,12.0,352,993.03,0.0,76,4.55,0.0,1021.10,360.0
2019-04-27 12:40,50.6304566666667,-96.98076,8.1,11.3,359,993.07,-0.1,78,4.57,0.0,1021.15,360.0
2019-04-27 12:50,50.630455,-96.9807633333333,7.8,10.0,358,993.17,-0.2,81,4.58,0.0,1021.25,360.0
2019-04-27 13:00,50.6304533333333,-96.980765,7.7,10.2,357,993.20,-0.3,81,4.60,0.0,1021.30,20.2
2019-04-27 13:10,50.6304416666667,-96.9807783333333,7.9,11.8,353,993.21,-0.3,81,4.61,0.0,1021.30,20.2
2019-04-27 13:20,50.63044,-96.9807733333333,7.5,10.2,352,993.24,-0.3,82,4.62,0.0,1021.31,20.2
2019-04-27 13:30,50.630455,-96.9807766666667,8.2,10.7,359,993.28,-0.3,83,4.63,0.0,1021.33,20.2
2019-04-27 13:40,50.630455,-96.9807683333333,7.4,9.7,3,993.39,-0.4,86,4.64,0.0,1021.43,20.2
2019-04-27 13:50,50.6304516666667,-96.98077,7.7,10.2,1,993.46,-0.3,87,4.65,0.0,1021.50,20.2
2019-04-27 14:00,50.6304533333333,-96.9807683333333,7.2,9.4,5,993.56,-0.3,87,4.65,0.0,1021.60,270.0
2019-04-27 14:10,50.630455,-96.9807666666667,7.3,8.9,15,993.52,-0.2,89,4.65,0.0,1021.55,270.0
2019-04-27 14:20,50.6304483333333,-96.9807783333333,7.7,9.3,14,993.48,-0.5,92,4.66,0.0,1021.52,270.0
2019-04-27 14:30,50.6304533333333,-96.9807683333333,7.2,8.8,7,993.45,-0.3,91,4.66,0.0,1021.49,270.0
2019-04-27 14:40,50.6304533333333,-96.9807633333333,7.7,8.8,10,993.28,-0.1,89,4.65,0.0,1021.32,270.0
2019-04-27 14:50,50.6304533333333,-96.9807633333333,7.0,8.3,9,993.25,-0.1,88,4.60,0.0,1021.28,270.0
2019-04-27 15:00,50.6304466666667,-96.9807883333333,5.4,6.8,9,993.30,-0.1,90,4.55,0.0,1021.34,253.2
2019-04-27 15:10,50.630455,-96.980775,4.6,6.0,30,993.26,0.0,90,4.53,0.0,1021.29,253.2
2019-04-27 15:20,50.630455,-96.9807566666667,5.5,6.5,34,993.27,0.2,89,4.50,0.0,1021.29,253.2
2019-04-27 15:30,50.6304566666667,-96.980755,6.4,7.8,23,993.27,0.3,86,4.47,0.0,1021.28,253.2
2019-04-27 15:40,50.6304566666667,-96.9807583333333,5.8,6.8,19,993.36,0.5,83,4.49,0.0,1021.37,253.2
2019-04-27 15:50,50.630455,-96.9807616666667,5.8,7.3,20,993.38,0.5,83,4.52,0.0,1021.38,253.2
2019-04-27 16:00,50.6304533333333,-96.98076,6.3,7.3,20,993.38,0.5,84,4.52,0.0,1021.39,90.0
2019-04-27 16:10,50.6304533333333,-96.98076,6.4,7.5,40,993.36,0.6,84,4.50,0.0,1021.37,90.0
2019-04-27 16:20,50.6304533333333,-96.98076,7.4,8.6,44,993.36,0.7,85,4.51,0.0,1021.36,90.0
2019-04-27 16:30,50.630455,-96.9807583333333,7.7,9.7,46,993.38,0.7,87,4.52,0.0,1021.37,90.0
2019-04-27 16:40,50.630455,-96.9807583333333,7.9,9.1,46,993.34,0.8,86,4.53,0.0,1021.33,90.0
2019-04-27 16:50,50.6304566666667,-96.980775,5.7,7.7,49,993.43,0.9,85,4.54,0.0,1021.41,90.0
2019-04-27 17:00,50.630455,-96.9807683333333,6.7,7.9,47,993.39,0.9,87,4.56,0.0,1021.36,0.0
2019-04-27 17:10,50.6304533333333,-96.98077,6.4,7.3,51,993.40,0.9,86,4.57,0.0,1021.37,0.0
2019-04-27 17:20,50.6304533333333,-96.9807683333333,5.3,6.6,57,993.40,1.0,85,4.58,0.0,1021.35,0.0
2019-04-27 17:30,50.6304516666667,-96.9807683333333,5.3,6.4,58,993.26,1.3,85,4.60,0.0,1021.19,0.0
2019-04-27 17:40,50.63045,-96.980765,4.8,6.2,60,993.18,1.3,86,4.61,0.0,1021.10,0.0
2019-04-27 17:50,50.63045,-96.980765,3.8,5.1,67,993.11,2.0,83,4.62,0.0,1021.00,0.0
2019-04-27 18:00,50.63045,-96.980765,4.2,5.2,74,993.02,2.4,77,4.63,0.0,1020.87,72.3
2019-04-27 18:10,50.63045,-96.980765,4.4,5.9,74,992.89,2.9,74,4.64,0.0,1020.72,72.3
2019-04-27 18:20,50.63045,-96.9807666666667,4.9,5.6,64,992.79,2.5,79,4.65,0.0,1020.62,72.3
2019-04-27 18:30,50.63045,-96.9807666666667,5.9,7.6,62,992.69,2.1,76,4.65,0.0,1020.55,72.3
2019-04-27 18:40,50.6304633333333,-96.9807616666667,5.6,6.6,59,992.65,1.9,80,4.65,0.0,1020.50,72.3
2019-04-27 18:50,50.6304583333333,-96.9807716666667,5.1,6.5,63,992.59,2.0,80,4.66,0.0,1020.44,72.3
2019-04-27 19:00,50.6304516666667,-96.98077,4.7,5.7,68,992.55,2.6,77,4.68,0.0,1020.36,270.0
2019-04-27 19:10,50.63045,-96.9807683333333,3.4,4.8,74,992.50,3.5,72,4.71,0.0,1020.26,270.0
2019-04-27 19:20,50.6304533333333,-96.98077,3.2,4.6,80,992.43,4.5,63,4.71,0.0,1020.12,270.0
2019-04-27 19:30,50.6304533333333,-96.98077,2.7,3.9,88,992.37,4.9,60,4.71,0.0,1020.04,270.0
2019-04-27 19:40,50.6304583333333,-96.9807733333333,2.1,3.2,105,992.32,5.1,63,4.71,0.0,1019.95,270.0
2019-04-27 19:50,50.6304483333333,-96.9807666666667,3.1,4.3,139,992.29,2.3,76,4.71,0.0,1020.03,270.0
2019-04-27 20:00,50.6304466666667,-96.980765,3.9,5.6,104,992.29,2.4,69,4.67,0.0,1020.00,142.0
2019-04-27 20:10,50.6304483333333,-96.9807683333333,4.1,5.7,84,992.26,3.4,63,4.63,0.0,1019.94,142.0
2019-04-27 20:20,50.6304483333333,-96.9807716666667,3.7,5.7,83,992.18,3.7,65,4.61,0.0,1019.87,142.0
2019-04-27 20:30,50.63045,-96.9807733333333,3.4,4.5,100,992.05,4.2,66,4.59,0.0,1019.72,142.0
2019-04-27 20:40,50.63045,-96.9807716666667,2.1,3.4,127,991.99,3.2,73,4.61,0.0,1019.71,142.0
2019-04-27 20:50,50.6304483333333,-96.9807716666667,2.3,3.5,125,991.98,2.6,72,4.66,0.0,1019.70,142.0
2019-04-27 21:00,50.6304483333333,-96.98077,2.3,3.5,119,991.97,2.8,68,4.70,0.0,1019.63,360.0
2019-04-27 21:10,50.6304483333333,-96.98077,2.0,3.2,134,992.01,2.5,70,4.75,0.0,1019.63,360.0
2019-04-27 21:20,50.63045,-96.9807683333333,1.1,2.3,112,992.05,2.8,66,4.78,0.0,1019.64,360.0
2019-04-27 21:30,50.63045,-96.98077,0.9,1.5,118,992.15,3.4,65,4.74,0.0,1019.70,360.0
2019-04-27 21:40,50.6304516666667,-96.98077,1.1,1.7,163,992.22,2.4,68,4.75,0.0,1019.97,360.0
2019-04-27 21:50,50.6304516666667,-96.9807683333333,0.4,1.4,104,992.17,3.5,61,4.76,0.0,1019.85,360.0
2019-04-27 22:00,50.6304516666667,-96.98077,0.9,1.9,46,992.14,5.1,49,4.71,0.0,1019.69,0.0
2019-04-27 22:10,50.6304533333333,-96.9807683333333,1.8,2.7,71,992.05,5.7,48,4.67,0.0,1019.55,0.0
2019-04-27 22:20,50.6304583333333,-96.9807766666667,1.8,2.7,34,992.00,5.4,47,4.66,0.0,1019.49,0.0
2019-04-27 22:30,50.6304366666667,-96.9807483333333,2.3,3.1,41,992.02,4.5,47,4.67,0.0,1019.61,0.0
2019-04-27 22:40,50.630455,-96.9807666666667,1.8,2.5,54,991.92,5.0,42,4.68,0.0,1019.51,0.0
2019-04-27 22:50,50.6304566666667,-96.9807716666667,1.8,2.4,70,991.86,6.2,40,4.72,0.0,1019.37,0.0
2019-04-27 23:00,50.6304583333333,-96.9807733333333,1.7,2.7,68,991.89,6.4,38,4.76,0.0,1019.42,345.5
2019-04-27 23:10,50.6304566666667,-96.9807733333333,1.5,2.1,70,991.87,6.7,35,4.78,0.0,1019.37,345.5
2019-04-27 23:20,50.6304666666667,-96.98078,2.0,2.7,59,991.82,6.5,35,4.79,0.0,1019.29,345.5
2019-04-27 23:30,50.6304583333333,-96.98078,3.2,3.8,45,991.84,5.4,38,4.82,0.0,1019.41,345.5
